www.pogodaiklimat.ru

Погода и климат >> Архив погоды >> Виргинские Острова >> Шарлотта-Амалия


ПОГОДА в Шарлотта-Амалии

  • Прогноз погоды в Шарлотта-Амалии
  • Монитор погоды в Шарлотта-Амалии

АРХИВ ПОГОДЫ в Шарлотта-Амалии

Время (UTC), дата Ветер
(напр.,м/с)
 
Видим.   Явления Облачность Т
(С)
Тd
(С)
f
(%)
Тe
(С)
Тes
(С)
Комфортность P
(гПа)
Po
(гПа)
Тmin
(С)
Tmax
(С)
R
(мм)
R24
(мм)
S
(см)
00 11.06 ЮВ 5 16 км 5/5 600 м
[]
+28.3 +23.3 74 +38 +38 очень
душно
1018.1 1009.8
06 11.06 В 4 16 км 10/10 600 м
[]
+26.7 +22.8 79 +35 +35 очень
душно
1017.2 1009.2
12 11.06 В 4 16 км 5/5 600 м
[]
+28.9 +22.2 67 +38 +39 очень
душно
1018.8 1010.5 +26.1 +31.1
18 11.06 В 5 16 км 8/8 1000 м
[]
+30.6 +22.8 63 +40 +43 очень
душно
1017.3 1009.2 +28.3 +31.7
00 12.06 СВ 4 16 км 5/5 600 м
[]
+27.8 +22.2 72 +36 +36 очень
душно
1017.1 1008.8 +26.1 +31.7
06 12.06 В 4 16 км ясно +26.7 +21.7 74 +34 +34 очень
душно
1016.2 1008.2 +26.1 +28.9
12 12.06 СВ 6 16 км 5/5 600 м
[]
+28.9 +21.7 65 +37 +38 очень
душно
1018.0 1009.8 +26.1 +31.7 0.0
18 12.06 В 4 16 км 10/10 1000 м
[]
+30.6 +21.7 59 +39 +39 очень
душно
1017.0 1008.8 +27.8 +32.2
00 13.06 В 6 16 км 3/3 600 м
[]
+27.8 +22.2 72 +36 +36 очень
душно
1017.2 1009.2 +26.1 +32.2
06 13.06 В 4 16 км ясно +27.2 +22.8 77 +36 +36 очень
душно
1017.0 1008.8 +26.1 +28.9
12 13.06 В 6 16 км 3/3 600 м
[]
+29.4 +22.8 68 +39 +41 очень
душно
1018.8 1010.5 +26.7 +32.2
18 13.06 В 9 16 км 5/5 1000 м
[]
+31.1 +21.7 57 +39 +40 очень
душно
1017.9 1009.8 +27.8 +31.1
00 14.06 В 6 16 км ясно +27.8 +22.8 74 +37 +37 очень
душно
1017.8 1009.8 +26.7 +31.1
06 14.06 В 4 16 км ясно +26.7 +21.7 74 +34 +34 очень
душно
1017.4 1009.2 +26.7 +29.4
12 14.06 В 4 16 км 8/0 2000 м
[]
+27.2 +22.2 74 +35 +38 очень
душно
1018.8 1010.9 +25.6 +31.1 0.8
18 14.06 ЮВ 7 16 км 5/5 600 м
[]
+30.0 +22.8 65 +40 +42 очень
душно
1017.4 1009.2 +27.2 +31.7
00 15.06 В 5 16 км 3/3 1500 м
[]
+27.8 +23.3 77 +38 +38 очень
душно
1016.9 1008.8 +25.6 +31.7
06 15.06 В 6 16 км ясно +27.2 +23.3 79 +37 +37 очень
душно
1016.8 1008.8 +25.6 +27.8
12 15.06 В 6 16 км 5/5 600 м
[]
+28.3 +23.3 74 +38 +39 очень
душно
1018.2 1010.2 +26.7 +31.7 0.0
18 15.06 В 6 16 км 5/5 600 м
[]
+32.2 +21.7 54 +41 +45 опасность
перегрева
1017.0 1008.8 +27.8 +32.8
00 16.06 В 5 16 км 3/3 600 м
[]
+28.3 +22.8 72 +38 +38 очень
душно
1017.1 1008.8 +26.7 +32.8
06 16.06 В 5 16 км 8/8 1500 м
[]
+27.8 +22.8 74 +37 +37 очень
душно
1016.4 1008.2 +26.7 +28.3 0.0
12 16.06 В 6 16 км ясно +29.4 +22.2 65 +38 +40 очень
душно
1017.8 1009.8 +27.2 +32.8
18 16.06 ЮВ 6 16 км 5/5 600 м
[]
+29.4 +23.9 72 +40 +44 очень
душно
1016.6 1008.5 +28.3 +32.8
00 17.06 В 5 16 км 8/8 1500 м
[]
+27.2 +24.4 85 +38 +38 очень
душно
1017.6 1009.5 +27.2 +32.8 3
06 17.06 В 4 14 км слаб. дождь 8/8 600 м
[]
+26.7 +24.4 87 +37 +37 очень
душно
1017.8 1009.5 +26.7 +29.4 0.0
12 17.06 В 6 16 км ясно +28.9 +23.9 74 +40 +42 очень
душно
1018.5 1010.5 +26.7 +32.8 0.0
18 17.06 ЮВ 7 16 км 5/5 600 м
[]
+31.1 +23.9 66 +43 +45 опасность
перегрева
1018.4 1010.2 +27.2 +31.7 0.0

 

Местоположение метеостанции Шарлотта-Амалия (Виргинские Острова): широта 18.35 долгота -64.96 высота над уровнем моря 6 м.

В архиве по умолчанию представлена погода в Шарлотта-Амалии за последнюю неделю. Архивные данные за месяц целиком и за предыдущие месяцы, начиная с января 2011 года, Вы можете получить, выбрав интересующий диапазон дат из раскрывающегося списка и нажав кнопку "Ввод!".


*Определитесь, кто Вы:
робот инопланетянин человек

Внимание! Время в таблицах - всемирное. Для получения местного времени необходимо прибавить поправку, которая равна -5 ч.

Смотрите также архив погоды в соседних городах и на ближайших метеорологических станциях:

Погода в Принцессы Юлианы аэропорту (Нидерландские Антилы) (199 км)
Погода в Ангилье (Ангилья) (202 км)
Погода в Аэропорту Роберт Брэдшоу (Сент-Китс и Невис) (268 км)
Погода в Аэропорту Ванс Амори (Сент-Китс и Невис) (281 км)
Погода в Пунта-Кане (Доминиканская Республика) (360 км)
Погода в Сент-Джонсе (Антигуа и Барбуда) (364 км)
Погода в Ла Романа аэропорту (Доминиканская Республика) (418 км)
Погода в Пуэнт-а-Питре (Гваделупа) (425 км)
Погода в Сабана де ла Мар (Доминиканская Республика) (472 км)
Погода в Канфилд аэропорту (Доминика) (492 км)

Пояснения к столбцам:

Ветер - указаны скорость ветра в м/с - средняя за 10 мин, порывы в срок и между сроками (в фигурных скобках) и направление, откуда дует ветер: С - северный, СВ - северо-восточный, В - восточный, ЮВ - юго-восточный, Ю - южный, ЮЗ - юго-западный, З - западный, СЗ - северо-западный.
Видимость - горизонтальная дальность видимости в метрах или километрах. При видимости от 1 до 10 км при отсутствии осадков обычно наблюдается дымка, при ухудшении видимости до 1 км и менее - туман. В сухую погоду видимость может ухудшаться дымом, пылью или мглою.
Явления - указаны атмосферные явления, наблюдавшиеся в срок или в последний час перед сроком; фигурными скобками обозначены явления, наблюдавшиеся между сроками (за 1-3 часа до срока); квадратными скобками обозначены град или гололедные отложения с указанием их диаметра в мм.
Облачность - указаны через наклонную черту общая и нижняя облачность в баллах и высота нижней границы облаков в метрах; квадратными скобками обозначены формы облаков: Ci - перистые, Cs - перисто-слоистые, Cc - перисто-кучевые, Ac - высококучевые, As - высокослоистые, Sc - слоисто-кучевые, Ns - слоисто-дождевые, Cu - кучевые, Cb - кучево-дождевые. Подробнее классификацию облаков см. в Атласе облаков (PDF).
T - Температура воздуха - температура, измеренная на высоте 2 м над землей.
Td - Температура точки росы - температура, при понижении до которой содержащийся в воздухе водяной пар достигнет насыщения.
f - Относительная влажность воздуха - влажноcть воздуха, измеренная на высоте 2 м над землей.
Te - Эффективная температура - температура, которую ощущает одетый по сезону человек в тени. Характеристика душности погоды. При расчете учитывается влияние влажности воздуха и скорости ветра на теплоощущения человека.
Tes - Эффективная температура на солнце - температура, которую ощущает человек, с поправкой на солнечный нагрев. Характеристика знойности погоды. Зависит от высоты солнца над горизонтом, облачности и скорости ветра. Ночью, в пасмурную погоду, а также при ветре 12 м/с и более поправка равна нулю.
P - Атмосферное давление - приведенное к уровню моря атмосферное давление.
Po - Атмосферное давление - измеренное на уровне метеостанции атмосферное давление.
Tmin - Минимальная температура - минимум температуры воздуха на высоте 2 м над землей.
Tmax - Максимальная температура - максимум температуры воздуха на высоте 2 м над землей.
R - Количество осадков - Количество выпавших осадков за период времени, мм. При наведении курсора мыши на число - период времени, за который выпало указанное количество осадков.
R24 - Количество осадков - Количество выпавших осадков за 24 часа, мм.
S - Снежный покров - Высота снежного покрова, см. При наведении курсора мыши на число - состояние снежного покрова и степень покрытия местности в баллах.